This demonstration page uses our WeatherBlox Daily Observations layout. Learn more.

Left ArrowRight Arrow

34.16533, -84.80231

Hourly Observations for October 2, 2022

Temp ( °F °C ) Dew Point ( °F °C ) Humidity (%) Winds ( mph kmh ) Pressure ( in mb ) Visibility ( mi km ) Precip ( " mm )
12:15 am 00:15 Clear 59 15 52 11 77 77 Calm 30.00 1016 10 16 0.00 0.00
12:35 am 00:35 Clear 59 15 52 11 77 77 Calm 30.00 1016 10 16 0.00 0.00
12:55 am 00:55 Clear 57 14 52 11 82 82 Calm 30.00 1016 10 16 0.00 0.00
1:15 am 01:15 Clear 57 14 52 11 82 82 Calm 29.99 1016 10 16 0.00 0.00
1:35 am 01:35 Clear 57 14 52 11 82 82 Calm 29.99 1016 10 16 0.00 0.00
1:55 am 01:55 Clear 55 13 52 11 88 88 Calm 29.99 1016 10 16 0.00 0.00
2:15 am 02:15 Clear 55 13 52 11 88 88 Calm 29.99 1016 10 16 0.00 0.00
2:35 am 02:35 Clear 55 13 52 11 88 88 Calm 29.99 1016 10 16 0.00 0.00
2:55 am 02:55 Clear 54 12 52 11 94 94 Calm 30.00 1016 10 16 0.00 0.00
3:15 am 03:15 Clear 54 12 52 11 94 94 Calm 30.00 1016 10 16 0.00 0.00
3:35 am 03:35 Clear 54 12 52 11 94 94 Calm 30.00 1016 10 16 0.00 0.00
3:55 am 03:55 Clear 54 12 50 10 88 88 Calm 29.98 1015 10 16 0.00 0.00
4:15 am 04:15 Clear 54 12 50 10 88 88 SSE 6 9 29.98 1015 10 16 0.00 0.00
4:35 am 04:35 Clear 55 13 50 10 82 82 Calm 29.98 1015 10 16 0.00 0.00
4:55 am 04:55 Clear 55 13 50 10 82 82 VRB 5 7 29.98 1015 10 16 0.00 0.00
5:15 am 05:15 Clear 55 13 48 9 77 77 Calm 29.99 1016 10 16 0.00 0.00
5:35 am 05:35 Clear 54 12 50 10 88 88 S 5 7 30.00 1016 10 16 0.00 0.00
5:55 am 05:55 Clear 54 12 48 9 82 82 Calm 30.00 1016 10 16 0.00 0.00
6:15 am 06:15 Clear 54 12 48 9 82 82 Calm 30.00 1016 10 16 0.00 0.00
6:35 am 06:35 Clear 54 12 48 9 82 82 SSE 6 9 30.00 1016 10 16 0.00 0.00
6:55 am 06:55 Clear 54 12 48 9 82 82 Calm 30.00 1016 10 16 0.00 0.00
7:15 am 07:15 Clear 55 13 48 9 77 77 Calm 30.00 1016 10 16 0.00 0.00
7:35 am 07:35 Sunny 55 13 48 9 77 77 Calm 30.01 1016 10 16 0.00 0.00
7:55 am 07:55 Sunny 54 12 48 9 82 82 VRB 5 7 30.01 1016 10 16 0.00 0.00
8:15 am 08:15 Sunny 55 13 48 9 77 77 W 6 9 30.02 1017 10 16 0.00 0.00
8:35 am 08:35 Sunny 57 14 48 9 72 72 VRB 5 7 30.02 1017 10 16 0.00 0.00
8:55 am 08:55 Sunny 57 14 50 10 77 77 Calm 30.02 1017 10 16 0.00 0.00
9:15 am 09:15 Sunny 59 15 50 10 72 72 VRB 6 9 30.02 1016 10 16 0.00 0.00
9:35 am 09:35 Sunny 59 15 50 10 72 72 VRB 5 7 30.03 1017 10 16 0.00 0.00
9:55 am 09:55 Sunny 61 16 50 10 68 68 VRB 5 7 30.02 1017 10 16 0.00 0.00
10:15 am 10:15 Mostly Sunny 63 17 50 10 63 63 VRB 12 19 30.02 1017 10 16 0.00 0.00
10:35 am 10:35 Mostly Sunny 64 18 50 10 59 59 VRB 6 9 30.02 1016 7 11 0.00 0.00
10:55 am 10:55 Partly Cloudy 64 18 50 10 59 59 NNE 16 26 30.03 1017 9 14 0.00 0.00
11:15 am 11:15 Partly Cloudy 64 18 50 10 59 59 NNE 13 20 30.03 1017 10 16 0.00 0.00
11:35 am 11:35 Mostly Sunny 66 19 52 11 60 60 VRB 6 9 30.03 1017 10 16 0.00 0.00
11:55 am 11:55 Sunny 66 19 50 10 56 56 WSW 13 20 30.03 1017 10 16 0.00 0.00
12:15 pm 12:15 Sunny 66 19 52 11 60 60 NNW 9 15 30.03 1017 10 16 0.00 0.00
12:35 pm 12:35 Sunny 68 20 52 11 56 56 N 13 20 30.01 1016 10 16 0.00 0.00
12:55 pm 12:55 Sunny 68 20 52 11 56 56 NNE 14 22 30.01 1016 10 16 0.00 0.00
1:15 pm 13:15 Sunny 70 21 52 11 53 53 N 8 13 30.01 1016 10 16 0.00 0.00
1:35 pm 13:35 Sunny 70 21 52 11 53 53 WNW 9 15 30.00 1016 10 16 0.00 0.00
1:55 pm 13:55 Sunny 72 22 54 12 53 53 N 8 13 30.00 1016 10 16 0.00 0.00
2:15 pm 14:15 Sunny 70 21 52 11 53 53 N 13 20 30.00 1016 10 16 0.00 0.00
2:35 pm 14:35 Sunny 72 22 54 12 53 53 VRB 7 11 30.00 1016 10 16 0.00 0.00
2:55 pm 14:55 Sunny 72 22 52 11 50 50 NNW 9 15 30.00 1016 10 16 0.00 0.00
3:15 pm 15:15 Sunny 72 22 54 12 53 53 N 10 17 29.99 1015 10 16 0.00 0.00
3:35 pm 15:35 Sunny 72 22 54 12 53 53 VRB 5 7 30.00 1016 10 16 0.00 0.00
3:55 pm 15:55 Mostly Sunny 72 22 54 12 53 53 VRB 6 9 29.99 1015 10 16 0.00 0.00
4:15 pm 16:15 Sunny 72 22 52 11 50 50 N 9 15 29.99 1015 10 16 0.00 0.00
4:35 pm 16:35 Sunny 72 22 52 11 50 50 NNE 14 22 30.00 1016 9 14 0.00 0.00
4:55 pm 16:55 Sunny 72 22 52 11 50 50 NNW 10 17 30.01 1016 10 16 0.00 0.00
5:15 pm 17:15 Sunny 70 21 52 11 53 53 N 13 20 30.01 1016 10 16 0.00 0.00
5:35 pm 17:35 Sunny 70 21 52 11 53 53 VRB 7 11 30.02 1017 10 16 0.00 0.00
5:55 pm 17:55 Sunny 68 20 52 11 56 56 NW 12 19 30.03 1017 10 16 0.00 0.00
6:15 pm 18:15 Sunny 68 20 52 11 56 56 VRB 7 11 30.04 1017 10 16 0.00 0.00
6:35 pm 18:35 Sunny 66 19 52 11 60 60 VRB 7 11 30.04 1017 10 16 0.00 0.00
6:55 pm 18:55 Sunny 66 19 52 11 60 60 N 8 13 30.06 1018 10 16 0.00 0.00
7:15 pm 19:15 Sunny 64 18 52 11 64 64 VRB 7 11 30.07 1018 10 16 0.00 0.00
7:35 pm 19:35 Clear 63 17 50 10 63 63 N 8 13 30.07 1018 10 16 0.00 0.00
7:55 pm 19:55 Clear 63 17 50 10 63 63 VRB 3 6 30.08 1019 10 16 0.00 0.00
8:15 pm 20:15 Clear 63 17 52 11 68 68 W 8 13 30.08 1019 10 16 0.00 0.00
8:35 pm 20:35 Clear 63 17 52 11 68 68 VRB 6 9 30.08 1019 10 16 0.00 0.00
8:55 pm 20:55 Clear 61 16 52 11 72 72 VRB 5 7 30.09 1019 10 16 0.00 0.00
9:15 pm 21:15 Clear 61 16 52 11 72 72 Calm 30.09 1019 10 16 0.00 0.00
9:35 pm 21:35 Clear 61 16 52 11 72 72 VRB 8 13 30.09 1019 10 16 0.00 0.00
9:55 pm 21:55 Clear 61 16 52 11 72 72 VRB 7 11 30.09 1019 10 16 0.00 0.00
10:15 pm 22:15 Clear 61 16 52 11 72 72 Calm 30.09 1019 10 16 0.00 0.00
10:35 pm 22:35 Clear 59 15 52 11 77 77 VRB 6 9 30.11 1019 10 16 0.00 0.00
10:55 pm 22:55 Clear 59 15 52 11 77 77 Calm 30.11 1019 10 16 0.00 0.00
11:15 pm 23:15 Mostly Clear 59 15 52 11 77 77 Calm 30.11 1019 10 16 0.00 0.00
11:35 pm 23:35 Mostly Cloudy 59 15 52 11 77 77 Calm 30.11 1019 10 16 0.00 0.00
11:55 pm 23:55 Cloudy 59 15 52 11 77 77 Calm 30.11 1019 10 16 0.00 0.00

Powered by AerisWeather